Wind_Speed
14 16 18 20 22 23 24 23 22 23 25 28 31 33 33 34 35 35 34 34 35 33 31 30 29 29 31 31 29 27 27 31 36 38 40 38 35 35 34 34 34 34 34 34 33 32 30 27 25 23 22 19 16 14 12 10 8 7 7 8 9 11 12 15 17 18 20 22 24 25 25 25 25 25 25 26 26 26 26 26 27 28 29 30 30
14 16 18 19 21 22 22 21 21 22 24 26 30 32 34 35 37 36 36 36 36 32 29 29 30 30 30 31 31 28 27 31 36 38 40 37 34 35 34 32 33 34 34 34 33 32 29 26 24 23 21 18 15 13 10 9 8 8 9 11 12 12 13 15 17 19 20 21 24 26 27 27 27 26 27 27 27 27 28 29 29 30 31 31 32
14 16 19 20 21 22 22 21 21 22 24 26 29 31 33 34 35 36 36 36 35 32 31 31 32 30 29 31 33 30 28 31 35 38 40 38 35 34 33 32 33 34 34 34 33 30 28 25 24 22 19 17 14 12 11 11 11 12 14 14 14 13 14 16 18 20 21 22 24 27 28 29 29 29 29 29 28 28 30 31 32 33 33 33 34
14 17 19 20 21 22 22 22 21 21 24 27 28 30 32 33 33 34 35 35 35 34 33 33 32 30 29 31 33 32 30 31 33 36 38 37 36 35 33 32 33 34 35 34 31 29 27 25 23 21 18 16 15 14 13 12 12 14 15 15 15 15 16 17 18 20 22 24 25 27 29 31 31 31 31 31 30 31 32 33 34 35 35 35 36
15 17 19 20 21 22 22 22 22 22 24 26 27 29 31 32 34 35 35 35 35 34 33 33 32 31 30 31 33 33 32 31 32 35 36 35 35 35 33 32 34 35 34 32 29 27 26 24 22 20 18 18 16 14 12 11 11 12 14 16 17 18 18 19 21 22 23 26 27 28 29 31 32 32 32 33 33 33 33 34 35 37 37 37 38
17 18 20 21 22 22 22 23 23 23 24 26 26 28 29 30 33 35 34 34 34 33 32 32 32 30 30 30 31 33 33 31 31 34 35 33 34 34 33 32 33 33 32 30 28 27 25 24 22 20 20 19 15 11 10 10 10 11 13 16 18 20 21 23 24 25 26 28 28 29 29 31 32 33 32 33 34 34 35 35 37 37 38 39 40
20 20 21 22 23 23 24 24 23 23 23 24 26 27 28 28 30 31 31 31 31 31 30 29 28 28 28 29 31 32 34 32 30 32 33 32 32 33 33 33 33 32 31 29 28 27 25 24 23 22 20 16 13 11 10 10 10 11 12 15 17 20 23 25 26 28 29 30 30 30 30 31 33 33 33 33 34 35 35 37 38 38 38 40 41
21 21 22 23 24 24 25 25 24 23 22 23 25 27 27 27 27 29 29 30 30 29 28 26 25 26 27 29 29 29 30 29 27 28 30 31 32 33 33 33 33 32 30 29 28 27 26 25 23 21 18 15 12 12 12 13 14 14 14 16 17 19 22 24 26 28 30 30 31 31 32 33 34 34 34 35 36 36 36 38 40 40 40 41 42
22 22 23 24 25 26 26 25 24 24 23 23 25 27 27 27 27 28 29 29 29 29 27 25 24 25 27 27 26 25 26 26 25 25 28 31 33 34 33 32 32 32 31 31 30 27 25 24 22 20 17 14 12 13 16 17 18 18 17 17 18 18 20 22 24 26 28 30 32 32 33 35 35 36 36 36 38 38 39 41 43 43 42 43 44
24 24 25 25 27 27 27 26 25 24 24 23 24 25 27 27 28 29 30 28 27 28 28 26 24 25 28 27 25 24 24 24 24 24 27 30 33 34 34 33 33 33 33 33 30 27 25 24 22 20 16 14 14 17 19 20 21 21 19 18 18 19 20 21 22 24 27 30 33 34 35 37 38 38 39 39 40 41 42 43 44 44 44 44 46
25 25 26 26 28 28 28 27 26 25 25 24 23 24 26 27 27 29 30 29 28 28 27 26 25 26 29 28 26 24 24 23 23 25 27 30 33 35 34 34 34 35 34 32 29 27 26 24 21 19 16 16 18 19 19 21 23 23 20 18 18 19 19 21 22 23 25 29 32 33 36 39 41 41 42 43 43 44 44 44 44 45 44 44 45
27 27 27 27 29 29 29 28 26 26 26 25 23 23 25 27 28 28 29 29 28 28 28 27 26 27 29 30 27 25 25 25 25 26 29 32 34 35 35 34 34 34 32 30 28 27 26 23 20 19 18 18 18 18 19 22 24 24 23 21 20 20 20 21 23 24 26 29 32 34 35 38 41 42 42 43 44 44 44 43 42 42 42 41 43
28 29 28 28 30 30 30 29 27 26 26 25 23 22 25 28 29 29 28 28 27 26 28 28 26 25 28 30 30 28 27 27 27 28 30 33 35 35 34 33 33 32 30 29 28 27 25 23 21 19 18 18 18 19 21 23 24 25 25 24 24 24 23 24 25 27 29 32 35 37 37 38 42 43 42 42 43 43 43 42 41 39 39 39 42
31 31 30 30 31 31 31 30 28 26 25 25 24 22 24 27 29 28 27 26 25 24 24 24 23 23 24 27 30 30 29 28 28 28 29 33 35 34 33 32 31 30 30 29 28 26 24 22 21 20 19 19 19 21 23 24 25 26 26 27 28 28 28 28 29 31 34 36 39 42 42 42 45 47 45 43 43 43 42 42 42 41 40 42 45
34 33 31 31 31 31 31 30 28 26 25 25 24 22 22 24 26 26 25 24 22 21 21 21 20 20 22 24 28 29 27 27 27 27 29 32 35 34 33 31 29 28 28 27 26 25 23 22 21 20 19 19 21 24 25 26 26 27 29 30 30 31 31 31 32 34 37 40 43 45 46 47 48 49 48 46 44 42 40 40 42 43 43 44 48
36 35 33 32 31 30 30 29 28 26 25 24 24 21 20 21 23 24 23 23 21 20 19 19 18 20 22 23 24 25 24 25 26 26 28 32 34 34 32 31 29 27 27 26 25 24 23 22 21 19 19 22 24 26 27 28 29 30 32 32 32 33 34 34 35 37 40 42 45 47 49 50 50 49 48 45 41 40 38 39 41 43 43 44 47
36 34 32 31 30 29 29 28 26 24 23 23 22 21 19 18 20 21 22 20 19 18 18 19 19 20 22 22 22 22 22 24 25 24 27 31 34 34 33 31 29 27 27 26 26 24 23 22 20 20 22 25 27 28 29 30 31 32 33 34 34 36 37 37 38 40 42 45 47 49 50 51 50 48 46 43 39 36 35 37 40 40 40 43 46
33 31 30 28 28 28 27 26 23 21 21 21 20 19 18 17 18 19 19 18 18 19 19 19 19 19 20 20 19 20 21 22 22 23 26 30 33 33 32 31 29 27 27 27 26 25 23 21 21 23 26 28 28 29 30 31 33 33 33 34 36 39 40 40 42 45 46 49 50 50 51 50 48 47 45 42 40 35 33 35 36 35 35 38 40
29 28 27 26 26 26 24 22 20 19 19 19 18 18 18 17 16 16 17 18 19 19 19 18 17 16 16 16 17 18 19 20 21 22 25 28 30 30 30 29 28 28 27 27 25 23 22 23 25 28 29 30 31 31 31 31 33 33 33 35 38 41 42 43 45 47 48 49 48 48 47 45 43 42 41 40 39 37 35 34 34 32 34 35 36
27 26 26 25 23 22 21 19 18 17 16 16 17 17 18 18 17 17 17 17 16 16 15 14 13 12 12 13 14 15 18 20 20 19 21 24 26 28 28 28 28 27 26 25 24 24 25 27 29 30 31 31 32 33 33 33 34 34 34 36 40 42 43 44 46 45 45 44 43 42 41 40 39 40 41 41 40 38 35 34 32 30 30 30 31
25 24 23 22 20 19 19 17 16 15 15 15 16 17 17 17 17 16 16 14 12 12 11 11 11 11 11 12 12 14 16 18 18 17 18 20 23 25 26 26 26 25 25 25 25 27 29 30 32 32 32 33 35 35 35 34 34 35 36 38 40 41 41 42 41 40 39 38 38 38 39 39 39 40 41 41 39 37 36 35 32 28 27 27 27
23 22 20 19 19 18 18 17 16 16 16 16 16 17 17 16 16 15 13 11 10 10 11 11 12 12 12 12 12 13 15 17 19 19 20 21 22 24 24 24 25 25 26 27 28 29 31 32 34 34 35 36 36 35 34 33 33 35 36 37 37 36 35 35 36 36 36 35 35 36 36 36 37 37 37 37 37 37 36 35 32 30 30 29 29
20 19 19 18 18 18 17 17 17 17 16 16 17 17 16 16 16 14 12 11 11 12 13 13 13 13 12 12 12 12 13 16 19 20 21 22 22 23 24 24 25 27 28 29 30 31 33 34 35 35 35 35 33 32 32 32 33 34 34 33 32 32 31 32 33 33 34 34 34 34 33 31 31 31 31 32 32 32 31 32 32 33 34 35 35
18 18 18 18 18 18 18 18 18 18 18 18 18 18 17 16 15 14 14 14 14 15 15 15 14 14 13 12 12 12 12 13 16 18 20 21 22 23 25 26 27 28 29 30 32 33 33 34 33 31 30 29 29 29 30 31 31 30 30 30 30 30 30 30 30 30 31 32 31 30 29 28 28 28 30 31 32 33 33 35 37 38 39 40 40
18 18 18 19 19 19 19 20 19 19 20 19 19 19 19 18 17 17 17 17 17 17 16 16 15 14 14 13 12 12 12 12 13 15 17 19 21 23 24 25 26 27 28 29 29 29 29 27 26 25 25 25 26 27 28 28 27 28 28 28 28 28 28 28 28 28 28 28 28 28 28 28 28 29 30 32 34 35 35 36 38 39 39 39 39
18 18 19 20 20 21 21 22 21 20 21 20 19 19 19 19 19 19 19 19 18 17 17 16 16 15 14 14 14 13 14 14 14 15 15 16 18 19 19 20 21 22 22 22 22 21 21 21 21 22 23 23 24 24 25 26 26 26 26 26 27 27 27 26 26 25 25 26 26 26 27 28 28 29 29 31 33 34 34 35 37 39 39 40 41
19 19 20 21 22 22 22 22 22 22 21 21 20 19 18 18 18 18 19 19 18 18 17 16 16 16 15 15 15 15 15 15 14 15 14 14 14 14 15 15 15 15 16 16 17 17 18 19 20 21 21 21 22 23 24 25 25 25 25 26 26 27 26 24 23 22 22 23 24 25 27 28 30 30 31 32 33 34 35 36 38 39 40 41 42
19 20 21 21 22 22 22 23 23 23 22 21 21 20 19 18 17 17 17 17 17 17 16 16 16 16 15 15 15 15 15 14 14 13 13 12 12 12 12 12 12 13 14 15 16 16 17 17 18 19 20 20 21 22 23 24 24 24 25 26 26 26 26 24 23 22 22 23 25 27 29 31 32 32 33 33 33 33 33 34 35 36 38 40 41
19 20 20 21 21 22 22 22 23 23 23 22 21 20 19 18 17 17 17 16 16 15 15 15 15 15 15 15 14 14 14 13 13 13 13 12 13 12 12 12 12 13 14 14 15 15 16 16 17 18 19 19 20 21 21 23 23 24 24 26 26 26 26 25 24 25 26 27 28 29 31 32 33 32 32 32 32 31 31 31 32 32 34 35 36
19 19 20 20 21 22 22 22 22 22 23 23 22 22 21 19 18 17 17 17 16 16 16 16 16 16 15 15 15 14 13 13 13 14 13 13 13 13 12 12 12 12 13 13 13 14 15 15 16 17 18 19 20 21 21 23 24 25 25 26 26 26 26 26 27 27 28 29 29 30 30 30 31 31 30 30 31 31 31 30 31 30 29 29 30
18 19 19 20 21 21 22 22 22 22 22 22 23 23 23 23 21 20 19 19 19 19 18 18 18 17 16 16 16 15 15 15 14 14 13 13 12 12 12 11 11 11 11 12 12 14 15 15 16 17 18 19 21 22 23 24 25 26 26 26 27 27 28 28 28 29 29 29 29 29 29 29 29 29 29 29 30 30 30 29 29 28 27 26 27
17 19 20 20 20 21 21 22 22 22 22 22 22 22 23 24 24 23 21 20 20 20 19 19 18 17 17 16 16 15 15 14 14 13 13 12 11 11 10 10 9 9 10 11 13 14 15 16 17 18 19 20 22 23 24 25 25 26 26 27 27 27 28 28 28 28 29 29 29 28 28 28 28 27 27 27 27 28 28 28 28 28 28 27 26
17 18 20 20 20 21 21 21 21 21 21 22 22 22 22 23 24 25 24 23 22 21 20 19 19 18 17 16 16 15 14 13 13 12 11 10 10 10 9 9 8 9 10 12 14 15 16 17 18 19 20 21 22 23 24 25 26 26 26 26 26 27 27 27 27 27 27 27 27 27 26 26 26 26 25 25 26 26 26 27 27 27 27 28 28
16 17 19 20 21 21 21 21 21 21 21 21 21 22 22 23 23 24 25 25 24 23 22 21 20 19 17 16 15 14 13 12 11 11 10 10 9 9 9 8 9 10 11 12 14 15 16 17 18 20 21 22 23 24 25 25 25 25 25 25 25 25 25 25 25 26 26 26 26 25 24 24 25 25 25 24 24 25 25 25 26 26 26 27 28
18 18 18 18 19 20 21 21 21 21 21 21 21 22 22 22 23 23 23 23 23 23 22 21 20 18 17 15 14 13 12 11 11 10 10 9 8 9 10 10 10 11 12 13 14 15 17 18 19 20 22 23 24 25 25 25 24 24 24 24 24 24 24 24 24 25 24 24 24 23 23 23 23 23 24 24 24 24 25 25 25 25 26 26 27
20 20 20 20 20 20 20 21 21 21 22 22 22 22 22 21 21 20 20 19 19 18 18 18 17 17 16 15 14 13 12 11 11 10 9 8 9 9 11 12 13 13 13 14 15 16 17 19 20 21 23 24 24 25 25 24 23 23 22 22 23 23 24 24 24 23 23 22 22 21 21 22 22 22 22 22 22 23 24 24 24 24 25 25 26
21 21 21 21 21 21 21 21 22 22 22 23 23 23 22 21 20 19 18 18 17 16 16 16 16 16 16 16 14 13 12 11 10 9 9 9 10 11 12 13 14 14 14 15 16 17 18 20 21 22 23 24 24 24 23 23 22 21 21 21 22 23 23 23 23 22 21 20 20 20 20 20 21 21 21 22 22 22 22 23 23 23 23 23 24
22 21 22 22 22 23 23 23 23 24 23 23 23 23 22 22 21 19 18 17 17 17 17 16 17 16 16 15 13 12 11 11 10 10 11 11 12 13 13 14 14 15 15 16 17 19 20 21 22 23 23 23 23 23 22 21 21 20 20 21 22 22 22 22 21 20 20 19 19 19 20 20 20 20 21 21 21 21 22 22 22 23 23 22 22
23 22 22 22 23 23 24 24 24 24 24 23 23 23 22 22 21 21 20 18 17 17 17 17 16 16 14 13 12 12 12 11 11 12 12 13 13 14 14 14 15 15 16 18 19 20 21 22 22 23 23 23 22 21 21 20 20 20 20 21 21 21 20 20 20 19 18 18 18 18 19 20 20 19 20 21 21 21 21 21 21 22 22 22 22
24 23 23 23 23 23 23 23 23 24 24 23 23 23 22 22 21 20 19 18 17 17 16 16 15 14 13 13 13 12 12 12 12 13 13 13 14 15 15 15 16 17 18 19 20 21 22 22 22 22 22 21 21 20 20 20 20 20 20 20 20 19 19 18 18 18 18 17 17 18 19 19 19 19 19 20 20 21 21 21 21 21 21 21 22
24 23 23 23 23 22 23 23 23 23 23 22 22 22 22 21 20 19 18 17 17 16 15 15 15 14 14 14 13 13 13 13 13 14 14 14 15 16 16 16 17 18 19 20 21 22 22 22 22 22 21 21 20 20 20 20 20 20 20 20 19 18 18 18 17 17 17 17 17 17 18 19 19 19 19 19 20 20 20 20 20 20 20 20 21
24 23 23 23 23 23 23 23 23 22 22 22 22 22 21 20 19 19 18 17 16 16 16 16 15 15 15 14 14 13 14 14 14 15 15 16 16 17 17 18 19 19 20 21 22 22 22 22 21 21 21 20 20 20 20 20 20 20 20 19 18 18 18 17 17 17 17 17 17 17 18 18 19 19 19 19 19 19 19 19 19 19 19 19 20
24 23 23 23 23 23 23 23 23 23 23 22 22 21 20 20 19 18 18 17 17 17 17 17 16 16 15 14 14 14 14 15 15 16 16 17 17 18 18 19 20 20 21 22 22 22 22 21 21 21 20 20 21 21 21 21 21 20 19 19 18 18 18 18 18 17 17 17 18 18 18 18 18 19 19 19 19 19 19 19 19 18 18 18 19
23 23 23 23 23 23 23 23 23 22 22 22 21 21 20 20 19 18 18 18 18 18 18 17 16 16 15 14 15 15 15 15 16 17 17 18 18 19 19 20 21 21 22 22 22 22 22 21 21 21 20 21 21 22 22 21 21 21 20 19 18 18 18 18 19 18 18 18 18 18 18 18 18 18 18 18 18 18 18 18 18 18 18 18 18
23 23 22 22 22 23 23 23 22 22 22 21 21 21 20 20 19 19 19 19 19 18 18 17 16 15 15 15 15 16 16 16 17 18 18 19 19 20 20 21 21 22 22 22 22 22 21 21 21 21 21 22 22 23 23 22 21 21 20 20 19 19 19 19 20 19 19 19 19 18 18 17 17 17 18 18 18 18 17 17 18 18 17 17 17
23 22 22 22 22 22 22 22 22 21 21 21 20 20 20 20 19 19 19 19 19 18 17 16 16 16 16 16 16 16 17 18 18 19 20 20 20 21 22 22 22 23 23 22 22 22 22 22 22 22 22 22 23 23 23 23 22 22 21 20 20 20 20 21 21 21 20 20 19 18 18 17 16 17 17 17 17 17 17 17 17 17 17 17 17
22 22 22 21 21 21 21 20 20 20 20 20 20 19 19 19 19 20 19 19 19 18 17 17 16 16 16 16 17 17 18 19 19 20 20 21 21 22 22 23 23 23 23 23 22 22 22 22 23 23 23 23 23 24 24 24 23 23 22 21 21 20 21 22 22 21 20 20 19 18 18 16 16 16 16 16 17 17 16 16 17 17 17 16 16
22 22 21 20 20 19 19 19 19 20 20 20 19 19 19 19 19 19 19 19 18 17 17 17 17 17 17 17 18 19 19 20 20 20 21 21 22 23 23 23 23 23 23 23 23 22 23 24 24 24 24 24 24 24 25 25 24 24 23 22 21 21 22 23 23 21 21 20 19 18 17 16 15 15 15 16 16 16 16 16 16 16 17 16 16
21 20 20 19 19 19 18 18 18 18 18 19 19 19 19 19 19 19 18 18 17 17 17 17 17 17 18 19 20 20 21 21 21 21 22 22 23 23 24 24 24 24 23 23 23 23 24 25 25 25 25 25 25 25 25 25 25 25 23 23 22 22 23 23 23 22 21 21 20 19 18 16 15 14 14 15 16 16 16 16 16 16 16 16 16
19 19 19 18 18 18 18 18 18 18 18 19 19 18 18 18 18 17 17 17 16 16 17 17 17 18 19 20 21 21 22 22 22 22 23 23 24 24 24 25 25 24 24 24 24 24 25 26 26 26 26 26 26 26 26 26 25 25 24 24 24 24 24 24 23 22 22 21 20 19 18 17 15 15 14 14 15 15 15 16 16 16 16 16 16
18 18 18 18 18 18 18 18 18 18 18 18 17 17 17 17 16 16 16 16 16 17 17 18 19 20 21 21 22 22 22 23 23 23 24 24 24 24 25 25 25 25 25 25 25 26 26 27 27 27 27 27 27 27 27 26 25 25 25 25 25 24 24 24 23 23 22 22 21 20 19 17 16 15 15 15 15 15 15 15 16 16 16 16 16
Wind_Direction
290 289 286 283 280 278 274 271 265 256 249 244 240 237 234 233 234 236 235 236 241 243 239 237 240 244 246 243 242 245 246 243 238 235 237 236 230 229 231 230 227 224 221 221 224 228 230 230 227 227 229 230 228 227 226 227 232 240 253 264 270 275 282 282 278 277 278 280 283 287 291 294 296 296 296 297 299 301 300 300 300 301 301 302 302
281 282 281 279 279 279 277 273 264 255 249 242 238 235 232 231 232 232 232 235 241 242 238 239 244 245 243 241 242 244 245 243 237 233 235 236 230 228 230 228 225 223 221 222 225 228 229 226 225 226 226 225 221 217 216 219 226 237 250 259 266 274 282 283 281 281 281 282 285 289 291 294 295 295 295 297 301 303 302 302 302 302 302 302 302
278 280 279 277 276 277 277 273 264 255 247 242 238 234 232 231 230 229 230 234 238 240 240 242 242 240 239 242 243 242 243 244 238 231 232 236 232 229 230 229 226 224 222 224 226 227 225 223 224 224 222 217 210 206 210 219 232 246 255 259 264 272 279 282 284 285 284 283 285 288 292 293 294 294 295 297 300 302 301 302 302 302 302 303 302
281 282 281 277 274 275 275 272 266 255 247 243 239 235 233 231 230 231 231 233 235 237 240 241 238 235 237 242 243 241 242 244 241 234 231 232 230 229 230 230 228 225 224 225 225 224 222 222 222 219 213 207 204 208 218 233 250 262 266 264 262 266 273 278 282 284 285 286 286 288 291 293 294 295 296 298 300 300 300 301 301 301 302 302 301
282 284 282 277 273 272 272 270 267 258 250 245 239 236 234 231 230 233 232 231 232 235 239 238 234 233 237 242 242 240 240 243 243 238 232 228 227 227 229 231 229 226 225 224 223 221 220 219 216 209 204 204 207 217 232 253 268 276 278 274 270 268 269 271 274 277 282 284 286 289 291 292 293 293 296 298 300 300 301 301 302 302 303 302 302
282 284 282 277 273 272 269 267 265 260 254 249 241 237 236 232 230 231 231 230 232 236 238 235 233 235 240 243 243 240 239 242 245 240 234 228 225 226 227 230 229 226 223 221 218 217 217 214 208 204 204 207 212 226 245 262 276 286 289 287 285 281 276 273 272 273 276 279 283 287 290 292 292 293 295 298 300 301 302 302 301 302 303 303 302
280 283 282 277 273 272 269 266 264 261 257 253 246 240 238 233 230 230 230 231 234 237 235 232 235 240 244 247 245 240 237 241 244 241 236 231 228 227 227 227 226 224 220 217 215 216 214 210 207 205 205 208 217 234 251 265 277 288 295 298 297 292 287 283 279 276 276 278 281 285 289 292 293 294 297 299 299 300 301 301 300 300 302 302 303
276 281 280 277 274 272 269 266 264 261 257 254 247 241 237 232 229 229 229 232 236 234 229 231 238 243 246 247 243 237 235 238 241 241 240 235 230 229 228 226 225 222 218 216 216 215 212 207 205 204 205 213 226 245 261 270 276 283 292 301 303 299 294 291 287 283 282 281 282 285 289 292 293 294 296 297 298 298 300 300 299 299 301 301 302
272 277 277 276 274 271 268 265 262 259 255 252 247 240 234 230 228 228 229 233 235 229 225 232 239 241 242 239 233 230 232 235 238 241 242 239 232 229 229 228 225 221 218 217 214 211 208 205 203 205 211 222 241 262 271 275 278 281 289 300 305 303 298 295 292 290 287 286 285 286 290 292 292 294 295 296 297 298 299 299 298 300 302 301 300
268 273 274 274 271 269 267 263 259 256 252 250 247 241 234 228 227 226 228 233 235 230 229 235 240 240 237 232 229 230 234 238 241 242 244 241 234 229 228 227 225 223 220 217 212 207 205 205 206 210 219 237 256 269 276 281 283 282 288 302 308 305 301 298 298 296 295 291 289 290 292 291 291 293 294 294 296 297 298 298 299 300 301 300 299
265 268 270 270 268 266 265 263 258 253 250 248 246 243 236 229 227 226 227 232 236 235 234 235 240 240 233 228 229 233 235 241 244 243 241 238 233 230 229 227 225 222 219 216 212 209 208 210 214 222 235 249 261 271 282 289 287 282 284 296 304 304 301 300 301 301 300 296 294 295 295 293 293 294 295 295 296 298 298 298 297 298 298 297 297
264 265 265 266 264 262 262 262 258 252 249 247 245 244 238 229 226 227 229 234 238 238 235 234 239 239 231 225 226 230 233 238 242 241 236 231 230 230 230 229 226 222 218 216 215 213 214 218 225 233 243 253 265 279 291 294 292 287 283 285 292 295 295 295 297 300 300 300 300 299 299 299 299 298 298 300 298 298 297 295 294 295 295 294 294
266 265 263 263 263 260 258 259 257 252 248 247 244 244 240 230 225 227 231 236 240 240 237 235 237 238 234 229 229 231 234 236 238 239 233 228 227 229 230 230 227 223 221 219 217 217 220 226 232 239 249 260 273 285 294 298 297 291 285 283 285 288 288 288 290 292 296 299 301 299 300 304 304 302 303 304 299 296 295 293 291 291 290 290 291
271 269 265 264 263 259 256 256 255 250 246 245 242 241 239 231 226 227 232 237 240 241 239 237 236 239 242 241 238 237 238 239 239 239 233 227 226 227 227 228 226 225 223 221 219 220 224 231 238 247 258 270 282 291 296 299 298 293 287 283 284 286 287 286 286 289 293 297 299 298 298 301 302 302 303 302 297 294 293 291 290 288 288 289 289
273 271 268 267 263 258 255 254 253 248 243 241 239 239 238 231 226 228 233 238 241 240 239 239 241 246 250 249 245 241 240 241 241 239 232 226 225 224 223 223 222 221 219 217 218 221 226 234 243 254 267 281 291 294 295 297 298 295 291 287 285 287 287 287 288 290 294 297 298 297 297 298 300 301 301 300 297 295 292 291 292 291 292 293 292
272 272 270 267 263 258 255 253 252 247 241 238 236 234 234 230 227 229 234 238 239 238 240 244 248 251 250 247 243 241 239 239 239 237 229 224 224 223 221 220 218 215 214 215 219 223 230 238 248 261 276 287 292 293 294 296 297 296 293 290 288 288 288 289 290 292 295 296 295 296 296 297 298 298 299 297 295 294 293 291 292 292 292 292 291
272 271 268 265 261 257 254 253 251 246 240 236 233 229 228 226 226 229 233 237 239 241 246 249 250 250 248 243 240 238 238 238 236 231 224 221 222 222 221 219 217 214 214 217 222 226 232 241 253 268 279 285 290 293 294 295 296 295 293 290 289 289 289 291 292 293 294 294 293 294 295 296 297 297 297 295 293 292 288 286 287 288 288 287 287
269 267 265 263 259 256 253 251 248 242 236 233 228 224 222 220 222 227 232 236 240 243 246 248 248 248 246 242 239 237 237 237 234 229 224 221 220 220 220 220 217 215 215 219 224 228 234 245 259 269 275 281 288 292 293 294 295 294 291 289 288 289 290 293 294 295 295 296 296 297 298 298 298 297 296 295 295 295 293 292 294 294 290 287 287
265 263 261 259 255 253 250 245 239 233 230 226 221 217 216 216 219 223 227 233 241 246 247 246 247 248 247 243 241 239 236 232 228 228 227 223 221 220 221 220 218 217 218 221 225 231 240 252 261 267 273 280 287 290 291 291 291 290 287 285 286 288 292 294 295 296 297 298 298 299 299 299 300 299 300 301 302 305 305 303 304 301 294 290 290
262 259 256 252 248 244 238 232 227 223 220 216 212 209 209 213 217 221 228 238 248 249 246 242 240 241 241 240 239 239 237 231 224 223 227 227 224 223 223 222 221 221 222 226 231 238 248 256 262 267 273 279 285 288 287 287 287 285 282 283 286 290 293 295 296 298 299 300 301 303 304 305 306 307 309 310 311 312 310 308 306 303 297 293 293
256 252 247 242 235 228 223 219 215 211 207 203 202 201 205 211 217 224 233 242 244 237 231 227 225 223 223 222 222 224 226 223 217 216 220 222 223 224 224 224 225 227 230 235 240 247 253 259 264 268 272 278 283 284 283 283 283 282 283 287 290 294 296 297 299 301 302 304 306 308 308 308 309 310 311 313 314 314 312 310 309 305 301 299 299
247 243 236 228 221 215 211 206 200 196 193 191 193 197 202 209 217 224 227 226 221 215 211 209 208 207 206 207 208 211 213 212 210 209 211 214 217 220 223 226 230 233 237 242 247 252 256 261 266 270 274 278 280 280 281 282 283 285 289 292 294 296 297 298 300 302 302 302 301 301 302 304 305 307 309 311 313 314 314 314 312 309 307 306 304
237 230 221 215 210 205 200 194 189 186 183 183 187 192 198 204 210 213 211 206 203 200 198 198 197 196 196 195 196 200 205 209 211 211 212 212 215 219 223 227 232 236 240 245 249 254 259 264 268 271 274 276 278 281 283 285 288 290 293 295 297 298 300 301 302 303 303 303 301 300 301 302 303 304 304 304 305 307 308 307 306 305 305 305 303
224 216 210 205 200 195 190 185 183 180 178 179 184 187 192 197 200 200 199 198 197 195 193 191 188 185 183 181 184 188 193 200 208 212 215 217 218 221 225 228 233 238 242 247 252 256 261 265 267 270 273 277 281 284 286 288 290 293 296 300 302 304 305 306 306 306 306 306 305 305 304 304 302 300 299 297 296 296 295 295 296 298 299 301 302
212 206 200 196 190 186 182 178 177 177 176 178 182 185 187 189 191 193 193 192 193 192 189 184 180 178 176 174 175 177 178 184 192 200 207 213 218 223 226 230 235 239 243 247 251 255 259 263 267 272 276 280 282 284 288 292 296 299 302 304 305 306 307 307 307 308 308 307 306 306 304 303 301 298 297 296 295 295 296 297 298 300 302 303 303
201 195 191 187 182 179 176 173 173 174 174 175 178 182 184 186 187 190 189 188 188 187 183 180 176 173 172 171 171 173 175 176 179 185 192 200 207 213 219 224 229 234 238 242 247 252 258 264 270 275 277 280 284 288 293 297 300 302 303 304 305 306 307 308 309 309 310 309 308 307 305 305 304 302 301 301 302 303 305 305 304 304 305 306 305
192 187 184 180 177 175 174 172 171 171 172 173 174 177 181 184 187 188 187 184 182 179 178 177 175 172 172 172 172 172 174 174 175 178 182 187 193 199 206 213 219 225 233 241 247 254 260 265 270 275 279 285 290 294 297 299 300 301 302 303 305 307 308 310 311 310 309 306 304 304 304 305 306 306 306 306 306 307 308 309 308 307 308 308 307
186 182 179 177 175 174 174 174 172 171 171 172 173 175 177 180 182 183 182 180 178 176 175 175 174 174 172 171 170 171 172 172 171 173 177 181 187 194 201 209 217 225 234 242 248 254 260 266 272 279 284 289 293 295 297 299 301 302 304 307 310 312 314 315 313 309 306 305 305 306 308 309 309 310 311 310 310 310 310 310 309 309 309 310 310
181 180 177 176 175 173 173 175 175 173 172 172 172 172 171 172 174 174 174 174 174 174 173 173 173 173 172 172 173 171 170 169 170 175 181 185 191 197 204 211 218 225 233 241 248 255 264 272 277 283 287 289 292 294 296 300 304 307 310 313 315 316 316 314 311 310 310 311 311 311 311 311 312 313 312 312 311 311 311 310 309 309 310 312 313
179 179 176 175 175 173 173 174 175 175 173 171 169 166 164 165 167 168 170 171 170 171 173 174 176 176 175 175 173 171 172 174 177 181 185 189 194 199 206 212 219 228 238 249 258 265 272 277 280 284 287 291 295 299 303 307 310 312 313 314 315 314 312 311 310 311 312 312 311 311 311 312 313 313 313 313 313 313 313 311 311 312 313 313 313
179 176 175 175 175 174 174 174 174 175 173 171 170 168 166 166 167 168 171 173 173 174 176 178 179 178 177 176 174 174 178 182 184 185 188 193 198 204 211 220 229 240 251 260 267 272 277 282 285 289 295 300 303 306 309 310 311 312 313 313 312 311 310 310 310 310 311 310 310 311 312 313 313 314 315 315 315 315 316 316 316 317 316 314 313
182 177 175 176 175 175 176 176 175 175 174 173 175 176 175 173 170 170 173 176 178 178 178 179 179 177 177 180 181 181 183 185 188 191 195 200 208 215 223 232 240 248 258 266 274 280 286 291 296 299 303 305 305 306 307 308 309 310 310 309 309 307 307 307 308 308 308 309 310 311 313 313 314 316 316 317 317 318 320 321 321 321 321 320 319
186 182 179 178 178 178 179 178 178 177 177 177 178 179 180 179 175 173 174 176 178 179 178 179 182 182 182 184 186 187 190 193 195 200 204 211 220 228 235 244 254 262 270 278 284 289 293 296 299 301 302 302 303 304 305 306 306 306 306 305 304 303 303 304 305 305 306 308 309 310 312 313 314 316 317 319 321 322 323 324 324 325 326 325 325
184 186 184 182 181 180 178 178 177 177 177 178 180 180 182 183 181 178 177 176 177 179 180 182 185 187 189 191 192 195 199 202 204 208 213 220 231 243 252 261 269 275 280 284 287 290 294 296 297 299 300 301 302 302 302 302 302 301 301 300 300 300 300 301 302 304 305 307 308 310 312 313 315 317 319 322 324 324 325 326 326 328 329 328 328
176 180 181 180 179 178 176 175 176 176 177 179 181 182 183 185 185 183 181 181 182 183 185 187 190 192 195 198 199 202 206 210 213 216 222 230 244 258 266 270 274 278 281 285 288 290 293 295 297 299 299 300 300 299 299 299 298 297 297 297 297 298 299 301 302 304 305 306 308 310 312 314 316 318 321 323 325 325 326 328 329 330 330 330 330
174 176 177 177 177 177 176 176 176 177 178 180 182 184 184 186 187 186 186 188 191 193 196 198 199 199 201 204 205 206 209 215 221 228 237 247 256 264 270 274 277 279 282 284 287 290 292 294 295 296 296 296 296 295 295 295 294 295 295 296 297 298 299 300 302 303 304 306 308 310 312 313 316 318 320 322 324 325 327 328 329 330 332 332 331
178 179 178 177 176 176 177 177 178 180 182 183 185 186 186 186 188 190 193 196 199 202 204 204 203 204 207 210 210 210 212 220 230 240 248 255 260 265 270 274 277 280 283 286 288 290 291 292 292 292 292 293 292 292 292 292 292 294 295 295 296 297 298 299 301 302 304 307 308 310 311 313 315 317 319 321 323 325 327 328 328 329 332 333 332
178 179 180 179 177 177 179 179 181 183 186 187 188 190 190 190 190 194 199 202 203 203 204 205 206 209 212 214 214 214 219 227 236 245 251 256 262 266 270 274 277 281 285 287 289 290 290 290 291 290 290 290 289 289 289 290 291 293 294 294 295 295 296 298 299 301 304 307 308 309 311 312 315 318 319 320 322 324 326 327 327 328 330 333 334
177 178 180 180 181 182 183 185 187 188 190 192 193 193 195 195 197 200 204 205 205 205 206 209 212 214 217 219 220 223 230 237 243 249 254 259 264 268 271 275 279 282 285 287 288 289 289 289 290 289 287 287 287 287 288 289 290 292 293 293 293 294 294 296 297 300 303 306 307 308 310 312 315 317 318 319 320 322 323 325 326 327 329 331 333
180 181 183 185 187 189 190 192 195 195 196 198 198 198 200 202 204 206 208 208 209 210 211 214 217 220 222 225 228 234 241 245 249 254 258 263 267 270 273 277 280 283 285 286 287 288 289 288 288 286 285 285 285 285 286 288 289 290 291 291 291 292 291 292 295 298 302 305 307 308 310 312 314 316 317 318 319 320 321 323 324 326 329 330 330
187 188 190 191 193 195 196 197 199 201 202 203 203 204 205 206 206 208 210 211 213 215 216 219 222 224 226 230 235 241 247 251 255 259 263 266 269 272 275 278 281 283 285 286 287 287 287 286 285 284 284 283 284 284 285 286 287 287 288 288 288 288 288 290 293 296 300 304 306 308 310 312 313 314 315 316 317 318 319 321 322 324 327 328 328
195 196 197 199 199 200 201 201 201 203 204 205 206 207 208 208 208 209 211 213 216 218 221 223 225 227 232 237 242 247 252 256 259 263 266 268 271 274 277 280 282 283 284 285 286 285 285 284 283 283 282 282 282 283 283 284 285 285 285 285 285 285 285 287 290 294 298 302 304 306 308 309 311 312 313 315 316 316 317 318 319 321 324 326 326
201 202 203 204 203 203 203 204 205 206 206 208 208 208 209 210 211 212 214 216 219 221 223 225 229 234 239 244 249 252 256 259 262 265 268 271 273 277 279 281 283 284 284 285 284 283 283 282 281 280 281 280 281 282 282 282 283 283 282 282 281 281 283 285 288 292 296 299 301 303 304 306 307 309 311 313 314 315 316 317 317 318 321 324 325
203 205 206 206 206 206 206 207 209 210 210 210 210 210 211 212 213 214 217 219 220 221 224 228 234 240 244 248 252 255 258 261 264 267 270 273 275 278 280 282 283 283 283 283 283 282 281 280 279 278 279 279 280 281 281 280 280 280 279 279 278 279 281 284 287 291 294 296 298 299 300 301 303 304 307 309 311 313 315 315 315 316 319 322 323
204 205 205 207 208 210 210 210 211 212 212 213 213 213 214 215 216 217 219 220 221 224 228 233 238 244 247 249 253 256 260 263 266 268 271 274 277 279 281 282 283 282 282 281 281 280 279 278 277 277 277 278 278 279 279 279 278 278 277 277 277 278 280 282 285 289 291 293 294 295 296 297 299 300 303 305 307 309 312 314 314 316 318 321 323
204 206 208 210 212 213 214 214 214 214 215 216 217 217 216 217 218 218 220 221 224 228 233 238 242 246 248 251 254 257 260 263 266 270 273 275 277 279 281 281 280 280 280 279 278 278 277 276 276 276 276 276 277 277 277 276 276 275 275 275 275 277 279 281 284 286 288 290 291 291 292 293 295 296 298 300 302 305 309 311 312 314 317 319 322
205 207 210 212 213 215 217 217 218 218 218 217 217 218 218 219 220 220 222 225 229 234 238 242 244 247 250 254 257 260 263 266 269 272 274 276 278 279 279 279 278 278 278 278 277 276 275 275 274 274 274 275 275 275 275 274 274 273 273 273 274 276 278 280 282 284 286 286 287 287 288 290 291 293 295 296 298 301 304 307 309 312 314 316 319
207 209 211 212 213 216 218 219 219 220 219 218 218 218 218 219 221 222 226 230 234 238 242 245 248 252 256 260 263 265 267 270 272 274 275 277 277 277 277 277 277 277 277 276 276 276 275 274 274 274 274 274 274 273 273 272 272 272 272 272 273 274 276 278 280 282 282 282 283 283 284 285 288 289 291 292 295 298 301 304 306 309 311 314 316
209 210 212 213 215 216 217 218 219 219 219 219 220 220 220 222 224 227 230 234 237 241 245 249 254 258 262 264 267 269 271 272 274 275 276 276 276 277 277 277 277 277 277 276 275 275 275 275 275 275 275 275 274 273 271 271 271 272 272 272 272 273 275 277 279 279 278 278 279 279 279 281 283 285 287 289 292 295 299 302 305 307 310 312 314
210 211 212 214 214 214 214 214 215 216 217 219 220 222 224 226 229 231 234 238 242 246 251 256 259 263 266 268 270 272 273 274 275 275 276 276 276 277 277 277 277 277 277 277 276 275 275 276 276 276 276 275 274 273 272 271 270 271 271 271 271 272 275 277 277 276 275 275 275 275 276 277 279 280 282 284 287 292 297 300 303 306 309 311 313
211 211 212 212 212 212 212 212 213 215 217 219 222 225 227 229 232 236 240 244 249 253 257 261 264 266 268 270 272 273 274 275 276 276 276 277 277 277 277 278 278 278 278 278 277 276 276 276 276 276 276 276 275 274 273 272 271 270 270 270 270 272 274 276 275 274 273 272 272 272 273 273 274 275 278 280 283 287 292 296 299 303 307 310 311
Height
1475 1475 1475 1475 1475 1475 1476 1476 1477 1478 1479 1480 1482 1484 1487 1490 1493 1495 1497 1499 1500 1502 1504 1505 1507 1508 1509 1510 1511 1512 1513 1514 1515 1517 1519 1519 1520 1522 1525 1527 1528 1530 1533 1535 1537 1540 1542 1544 1545 1546 1547 1548 1549 1551 1552 1553 1554 1555 1556 1557 1558 1559 1560 1561 1561 1561 1561 1560 1559 1558 1558 1557 1557 1556 1554 1553 1552 1551 1550 1549 1548 1546 1545 1544 1543
1472 1473 1472 1473 1472 1473 1473 1474 1474 1475 1476 1477 1478 1480 1482 1485 1488 1491 1493 1495 1497 1499 1500 1502 1504 1505 1506 1507 1507 1508 1509 1510 1512 1514 1515 1516 1518 1520 1523 1525 1526 1528 1531 1533 1535 1538 1540 1542 1543 1544 1545 1546 1548 1549 1550 1551 1552 1553 1554 1554 1555 1557 1558 1559 1559 1559 1559 1558 1557 1556 1555 1555 1554 1553 1552 1550 1549 1548 1546 1546 1544 1543 1542 1540 1539
1470 1471 1471 1471 1471 1471 1471 1471 1472 1472 1473 1473 1475 1477 1479 1481 1484 1486 1488 1491 1492 1495 1497 1499 1500 1501 1503 1503 1504 1505 1506 1507 1508 1510 1512 1514 1516 1519 1521 1522 1524 1527 1529 1531 1533 1535 1537 1539 1541 1542 1543 1544 1545 1546 1547 1548 1549 1550 1551 1552 1553 1554 1556 1557 1557 1557 1556 1556 1555 1554 1553 1552 1551 1550 1549 1548 1547 1546 1544 1543 1541 1539 1538 1537 1535
1468 1468 1469 1469 1469 1469 1469 1469 1469 1470 1470 1471 1472 1474 1476 1478 1480 1482 1485 1487 1488 1491 1493 1495 1496 1497 1499 1500 1501 1502 1503 1504 1506 1507 1509 1511 1514 1516 1518 1520 1523 1525 1527 1529 1531 1533 1535 1537 1538 1539 1541 1542 1543 1544 1545 1546 1547 1548 1549 1550 1551 1551 1553 1554 1555 1555 1554 1553 1553 1552 1551 1549 1548 1547 1546 1545 1545 1543 1542 1540 1538 1536 1535 1534 1532
1465 1466 1466 1466 1466 1467 1466 1466 1466 1467 1468 1468 1470 1471 1473 1475 1477 1479 1481 1483 1485 1487 1489 1490 1492 1493 1495 1497 1498 1499 1501 1502 1503 1505 1506 1508 1511 1514 1516 1518 1521 1522 1525 1527 1529 1531 1532 1534 1535 1536 1538 1539 1540 1542 1543 1545 1546 1546 1547 1548 1548 1549 1549 1551 1551 1552 1551 1550 1549 1549 1548 1547 1545 1544 1543 1542 1541 1540 1539 1537 1535 1533 1531 1530 1528
1463 1463 1463 1464 1463 1464 1463 1463 1464 1464 1465 1466 1467 1468 1470 1472 1474 1476 1478 1480 1482 1484 1485 1487 1488 1490 1492 1493 1494 1496 1498 1499 1501 1502 1504 1506 1508 1511 1513 1516 1518 1520 1523 1525 1526 1528 1529 1531 1532 1533 1535 1537 1538 1540 1542 1543 1544 1545 1545 1546 1546 1546 1547 1547 1548 1548 1548 1547 1546 1545 1545 1544 1542 1541 1541 1540 1538 1536 1535 1533 1532 1530 1528 1526 1524
1460 1460 1461 1461 1461 1461 1460 1461 1461 1462 1462 1463 1464 1465 1467 1469 1471 1473 1475 1477 1479 1481 1482 1484 1485 1487 1488 1489 1491 1493 1495 1497 1498 1500 1502 1504 1506 1508 1511 1513 1516 1518 1521 1523 1524 1526 1527 1527 1528 1530 1533 1535 1537 1538 1540 1541 1542 1543 1543 1544 1544 1544 1544 1545 1545 1544 1544 1543 1543 1542 1541 1540 1538 1537 1537 1536 1534 1533 1532 1530 1527 1527 1525 1522 1520
1458 1458 1458 1458 1458 1457 1457 1458 1458 1459 1460 1460 1461 1462 1463 1466 1468 1470 1472 1474 1476 1478 1479 1481 1483 1484 1485 1486 1488 1490 1492 1494 1496 1498 1500 1501 1504 1506 1508 1510 1513 1516 1519 1521 1522 1523 1524 1525 1526 1529 1531 1533 1535 1536 1538 1539 1540 1541 1541 1541 1542 1542 1542 1542 1542 1541 1541 1540 1539 1539 1537 1536 1535 1534 1534 1533 1531 1530 1529 1526 1523 1522 1521 1518 1516
1455 1454 1455 1455 1455 1454 1454 1454 1455 1456 1456 1457 1458 1459 1461 1463 1465 1467 1469 1471 1473 1475 1476 1478 1479 1481 1482 1483 1485 1487 1489 1491 1493 1495 1497 1499 1501 1504 1506 1509 1511 1514 1516 1518 1519 1520 1521 1523 1525 1527 1529 1531 1533 1535 1536 1537 1538 1538 1539 1539 1539 1539 1539 1539 1539 1538 1538 1537 1536 1535 1534 1533 1532 1531 1531 1529 1528 1526 1525 1523 1519 1517 1516 1513 1511
1451 1451 1451 1452 1451 1451 1451 1451 1452 1453 1453 1454 1455 1456 1457 1460 1462 1464 1467 1468 1470 1472 1473 1475 1476 1478 1479 1481 1483 1484 1486 1489 1491 1493 1495 1497 1499 1502 1504 1507 1509 1512 1513 1514 1516 1517 1519 1521 1523 1525 1528 1530 1532 1533 1534 1535 1536 1536 1536 1536 1536 1537 1537 1537 1536 1536 1536 1534 1532 1532 1531 1529 1528 1528 1527 1526 1525 1523 1521 1519 1516 1514 1512 1509 1506
1448 1448 1448 1448 1448 1448 1448 1448 1448 1449 1450 1451 1452 1453 1454 1457 1459 1461 1463 1465 1467 1469 1470 1472 1473 1475 1477 1478 1480 1482 1484 1486 1488 1490 1492 1494 1497 1500 1502 1504 1506 1509 1510 1512 1513 1515 1516 1519 1521 1524 1527 1529 1530 1531 1532 1533 1533 1533 1534 1534 1534 1534 1534 1534 1534 1534 1533 1531 1529 1529 1528 1525 1525 1525 1523 1522 1521 1519 1517 1515 1512 1510 1508 1505 1501
1444 1444 1444 1444 1445 1444 1444 1444 1445 1446 1446 1447 1449 1450 1452 1454 1456 1458 1460 1462 1464 1466 1467 1469 1471 1472 1474 1475 1477 1479 1481 1484 1485 1487 1489 1492 1495 1497 1499 1502 1504 1506 1508 1510 1512 1513 1515 1517 1520 1522 1525 1527 1528 1530 1531 1531 1531 1531 1531 1531 1532 1532 1532 1532 1531 1531 1530 1528 1526 1525 1524 1523 1521 1520 1520 1519 1517 1514 1512 1510 1508 1506 1504 1501 1498
1439 1439 1440 1440 1440 1441 1441 1441 1441 1442 1443 1444 1446 1447 1448 1450 1453 1455 1458 1460 1462 1463 1464 1466 1468 1470 1471 1473 1475 1477 1479 1481 1482 1484 1486 1489 1492 1495 1498 1500 1502 1505 1507 1508 1510 1511 1513 1516 1518 1520 1523 1525 1527 1528 1528 1528 1528 1528 1528 1529 1529 1529 1529 1529 1528 1527 1526 1525 1523 1521 1520 1520 1517 1515 1516 1515 1512 1509 1507 1505 1504 1502 1500 1498 1494
1435 1435 1435 1436 1436 1437 1438 1437 1438 1439 1440 1441 1443 1444 1445 1447 1450 1453 1455 1457 1459 1460 1462 1464 1466 1467 1469 1471 1473 1474 1476 1478 1479 1481 1484 1487 1490 1493 1496 1498 1500 1503 1504 1506 1507 1509 1511 1514 1516 1519 1521 1523 1524 1525 1525 1526 1526 1526 1526 1525 1525 1525 1525 1525 1524 1524 1523 1521 1519 1516 1515 1516 1513 1510 1510 1510 1507 1504 1502 1500 1498 1497 1494 1492 1489
1430 1430 1431 1431 1432 1433 1434 1434 1435 1436 1437 1438 1440 1441 1443 1445 1448 1450 1452 1455 1457 1458 1460 1462 1463 1465 1466 1468 1470 1471 1473 1475 1476 1478 1481 1484 1487 1490 1493 1496 1498 1500 1502 1504 1506 1508 1510 1512 1515 1517 1519 1520 1522 1522 1522 1523 1522 1522 1522 1522 1521 1521 1520 1520 1520 1520 1518 1517 1515 1512 1510 1510 1508 1506 1505 1504 1501 1499 1498 1495 1493 1491 1488 1486 1483
1426 1426 1426 1427 1428 1429 1430 1431 1432 1433 1434 1436 1437 1439 1441 1443 1445 1448 1450 1452 1454 1456 1457 1459 1460 1462 1464 1465 1467 1468 1470 1472 1473 1475 1478 1481 1485 1488 1491 1494 1496 1498 1500 1502 1504 1506 1508 1511 1513 1515 1516 1518 1518 1519 1519 1519 1519 1518 1518 1517 1517 1516 1516 1516 1516 1516 1515 1513 1510 1508 1505 1504 1503 1501 1500 1499 1496 1495 1493 1490 1488 1486 1483 1480 1477
1422 1422 1422 1423 1425 1426 1427 1428 1429 1430 1432 1433 1435 1437 1439 1441 1444 1446 1448 1450 1452 1453 1455 1456 1458 1460 1461 1462 1464 1465 1467 1468 1470 1472 1475 1478 1482 1486 1489 1492 1494 1497 1499 1500 1502 1504 1507 1509 1511 1513 1514 1515 1516 1516 1516 1516 1515 1515 1514 1513 1512 1511 1511 1511 1511 1510 1509 1507 1505 1503 1501 1500 1499 1497 1495 1494 1492 1491 1490 1486 1484 1483 1480 1476 1472
1418 1418 1419 1420 1421 1422 1424 1425 1426 1428 1429 1431 1433 1435 1438 1440 1442 1444 1446 1448 1450 1452 1453 1455 1456 1457 1458 1460 1461 1463 1464 1465 1467 1470 1472 1474 1479 1483 1486 1490 1493 1495 1497 1498 1500 1503 1505 1507 1509 1510 1511 1512 1513 1513 1513 1512 1511 1511 1510 1509 1507 1506 1506 1506 1505 1504 1503 1501 1499 1498 1496 1494 1493 1492 1490 1489 1488 1487 1485 1481 1480 1479 1476 1473 1470
1414 1415 1416 1417 1418 1419 1421 1422 1423 1425 1427 1429 1431 1434 1436 1438 1441 1443 1445 1446 1448 1450 1451 1453 1454 1455 1456 1458 1459 1461 1462 1463 1465 1468 1470 1473 1477 1481 1484 1488 1490 1493 1495 1497 1499 1501 1503 1505 1506 1507 1508 1509 1510 1510 1510 1509 1508 1507 1506 1505 1503 1501 1502 1502 1500 1498 1497 1496 1494 1492 1490 1489 1488 1486 1485 1483 1482 1481 1480 1477 1476 1475 1472 1469 1467
1411 1412 1413 1414 1415 1416 1418 1419 1421 1423 1425 1427 1430 1432 1434 1437 1439 1441 1443 1445 1446 1448 1449 1450 1452 1453 1454 1456 1457 1458 1459 1461 1463 1466 1469 1472 1476 1480 1483 1485 1488 1490 1493 1495 1497 1499 1501 1502 1503 1504 1505 1506 1506 1506 1505 1505 1504 1503 1502 1501 1499 1498 1498 1497 1495 1494 1493 1491 1489 1487 1485 1483 1482 1480 1478 1477 1476 1475 1474 1473 1472 1471 1468 1466 1464
1408 1409 1410 1411 1412 1413 1415 1417 1419 1421 1423 1425 1428 1430 1433 1435 1438 1439 1441 1443 1444 1446 1447 1448 1450 1451 1452 1453 1455 1456 1457 1459 1462 1464 1467 1471 1474 1477 1481 1483 1486 1489 1491 1493 1495 1497 1498 1499 1500 1501 1502 1502 1502 1501 1501 1500 1500 1499 1498 1497 1496 1495 1494 1492 1491 1489 1488 1486 1484 1482 1480 1479 1477 1475 1474 1472 1471 1470 1469 1468 1467 1466 1464 1462 1460
1405 1406 1407 1409 1410 1411 1413 1415 1417 1419 1421 1424 1426 1429 1431 1434 1436 1438 1439 1441 1443 1444 1446 1447 1448 1449 1450 1452 1453 1454 1456 1458 1460 1463 1466 1469 1472 1475 1478 1482 1484 1487 1489 1491 1493 1494 1495 1496 1497 1498 1498 1498 1497 1497 1497 1496 1496 1495 1494 1494 1493 1492 1491 1489 1487 1486 1484 1483 1481 1480 1478 1477 1475 1473 1471 1469 1467 1465 1464 1462 1462 1461 1460 1458 1457
1403 1404 1405 1407 1408 1410 1411 1413 1415 1418 1420 1422 1425 1427 1430 1432 1434 1436 1438 1440 1441 1443 1444 1446 1447 1448 1449 1450 1452 1453 1455 1457 1459 1462 1465 1467 1470 1473 1476 1479 1482 1484 1486 1488 1490 1491 1492 1493 1493 1494 1494 1493 1493 1493 1493 1493 1492 1492 1491 1490 1489 1488 1487 1485 1484 1483 1481 1480 1478 1477 1476 1475 1473 1471 1470 1468 1466 1464 1462 1460 1458 1457 1455 1454 1452
1401 1402 1404 1405 1407 1408 1410 1412 1414 1416 1419 1421 1423 1426 1428 1430 1432 1435 1437 1438 1440 1442 1443 1444 1446 1447 1448 1450 1451 1453 1455 1456 1458 1461 1464 1466 1469 1472 1474 1477 1479 1482 1484 1485 1486 1487 1488 1489 1489 1489 1490 1490 1490 1490 1490 1489 1489 1488 1488 1486 1485 1484 1483 1482 1481 1480 1478 1477 1476 1474 1473 1472 1471 1469 1467 1465 1464 1462 1460 1458 1455 1454 1452 1450 1448
1400 1401 1402 1404 1405 1407 1409 1412 1414 1416 1418 1420 1422 1424 1427 1429 1431 1433 1435 1437 1439 1440 1442 1443 1445 1446 1448 1449 1451 1453 1454 1456 1458 1460 1462 1465 1467 1470 1472 1474 1477 1479 1480 1482 1483 1484 1485 1485 1486 1486 1487 1487 1487 1487 1487 1486 1485 1484 1483 1483 1482 1481 1480 1479 1478 1477 1476 1475 1473 1472 1470 1469 1468 1466 1465 1462 1460 1458 1456 1454 1451 1449 1447 1445 1442
1399 1400 1402 1403 1405 1407 1409 1411 1413 1415 1417 1419 1422 1424 1426 1428 1430 1431 1433 1436 1438 1439 1441 1443 1444 1446 1448 1449 1451 1453 1454 1456 1457 1459 1461 1463 1465 1468 1470 1472 1474 1475 1477 1478 1480 1481 1482 1482 1483 1484 1484 1484 1484 1484 1483 1482 1482 1481 1480 1480 1479 1478 1477 1476 1475 1474 1473 1472 1471 1469 1468 1466 1465 1463 1461 1459 1456 1454 1452 1450 1447 1445 1443 1440 1437
1398 1400 1401 1403 1405 1407 1408 1410 1412 1415 1417 1419 1421 1423 1426 1428 1430 1431 1433 1435 1437 1439 1441 1442 1444 1446 1447 1449 1451 1452 1454 1456 1457 1459 1460 1462 1464 1466 1468 1470 1472 1473 1475 1476 1477 1478 1479 1480 1481 1481 1481 1481 1481 1481 1480 1479 1479 1478 1477 1477 1476 1475 1474 1473 1473 1472 1471 1470 1468 1467 1465 1463 1461 1459 1457 1455 1453 1451 1449 1447 1443 1441 1439 1436 1433
1398 1399 1401 1403 1404 1406 1409 1410 1412 1414 1416 1419 1421 1423 1425 1428 1430 1432 1434 1436 1438 1439 1441 1442 1444 1446 1447 1449 1450 1452 1454 1455 1457 1459 1460 1462 1464 1466 1467 1469 1470 1472 1473 1474 1475 1476 1477 1478 1478 1478 1478 1478 1478 1477 1477 1477 1476 1475 1474 1473 1473 1472 1471 1470 1470 1469 1468 1467 1465 1463 1461 1459 1457 1455 1454 1452 1450 1448 1446 1444 1441 1438 1435 1432 1429
1398 1399 1401 1402 1404 1406 1408 1410 1412 1414 1416 1418 1420 1423 1425 1428 1430 1432 1434 1436 1438 1440 1441 1443 1444 1446 1448 1449 1451 1452 1454 1456 1457 1459 1461 1462 1464 1465 1467 1468 1469 1470 1471 1472 1473 1474 1475 1475 1476 1475 1475 1475 1475 1475 1475 1474 1473 1472 1471 1470 1469 1468 1468 1467 1466 1465 1465 1463 1462 1460 1458 1456 1454 1452 1450 1448 1446 1444 1442 1440 1438 1435 1432 1430 1427
1398 1400 1401 1403 1404 1406 1408 1410 1413 1414 1416 1418 1420 1422 1425 1428 1430 1432 1434 1436 1438 1439 1441 1443 1445 1446 1448 1450 1451 1453 1455 1456 1458 1459 1460 1462 1463 1465 1466 1467 1468 1469 1470 1471 1471 1472 1472 1473 1473 1473 1473 1473 1473 1472 1472 1471 1470 1469 1468 1467 1466 1466 1465 1464 1463 1462 1462 1460 1459 1457 1455 1453 1451 1449 1447 1445 1443 1441 1440 1437 1435 1433 1430 1428 1425
1399 1400 1402 1403 1405 1406 1408 1410 1412 1414 1416 1418 1420 1422 1424 1426 1429 1431 1433 1435 1437 1439 1441 1443 1444 1446 1448 1450 1451 1453 1455 1456 1458 1459 1460 1461 1463 1464 1465 1466 1467 1468 1468 1469 1469 1469 1470 1470 1470 1470 1470 1470 1470 1469 1469 1468 1467 1466 1465 1465 1464 1463 1462 1461 1460 1460 1459 1457 1456 1454 1452 1450 1448 1446 1445 1443 1440 1439 1437 1435 1433 1430 1428 1426 1424
1400 1401 1402 1404 1405 1407 1409 1411 1413 1415 1417 1418 1420 1422 1424 1425 1427 1430 1433 1435 1437 1439 1441 1443 1444 1446 1448 1450 1452 1453 1454 1456 1457 1458 1459 1460 1461 1462 1463 1464 1465 1466 1466 1467 1467 1467 1467 1467 1467 1467 1468 1468 1467 1466 1466 1465 1465 1464 1463 1462 1462 1460 1459 1458 1458 1457 1455 1454 1453 1451 1449 1447 1446 1444 1442 1440 1438 1436 1434 1432 1430 1428 1426 1424 1422
1401 1402 1402 1404 1406 1408 1410 1412 1414 1415 1417 1419 1420 1422 1424 1426 1427 1429 1431 1434 1436 1438 1440 1442 1444 1446 1448 1450 1451 1453 1454 1455 1456 1457 1458 1459 1460 1460 1461 1462 1463 1464 1464 1464 1464 1465 1465 1465 1465 1465 1465 1465 1464 1464 1463 1463 1462 1462 1461 1460 1459 1458 1457 1456 1455 1454 1453 1451 1450 1448 1447 1445 1443 1441 1439 1438 1436 1434 1432 1430 1428 1426 1424 1422 1420
1401 1402 1403 1405 1406 1408 1410 1412 1414 1416 1417 1419 1421 1423 1425 1426 1428 1429 1431 1433 1435 1437 1440 1442 1443 1445 1447 1449 1450 1452 1453 1454 1455 1456 1457 1457 1458 1458 1459 1460 1461 1461 1462 1462 1462 1462 1463 1463 1463 1463 1463 1462 1462 1461 1460 1460 1459 1459 1458 1457 1456 1455 1454 1453 1452 1451 1450 1448 1447 1446 1444 1442 1440 1438 1437 1435 1433 1432 1430 1428 1426 1424 1422 1420 1417
1400 1402 1404 1406 1407 1409 1410 1412 1414 1416 1418 1420 1421 1423 1425 1427 1429 1431 1432 1434 1435 1437 1439 1441 1442 1444 1445 1447 1449 1450 1451 1452 1453 1454 1455 1456 1456 1457 1457 1458 1459 1459 1460 1460 1460 1460 1461 1461 1461 1460 1460 1459 1459 1458 1457 1457 1457 1456 1455 1454 1453 1452 1451 1450 1449 1448 1447 1446 1444 1443 1441 1439 1437 1436 1434 1433 1431 1429 1427 1426 1424 1422 1420 1418 1416
1400 1402 1404 1406 1407 1409 1411 1413 1415 1416 1418 1420 1422 1424 1425 1428 1429 1431 1433 1435 1436 1437 1439 1440 1441 1443 1444 1445 1447 1448 1450 1450 1451 1452 1453 1454 1454 1455 1455 1456 1456 1457 1458 1458 1458 1458 1458 1458 1458 1458 1457 1457 1456 1455 1455 1454 1454 1453 1452 1451 1450 1449 1448 1447 1446 1445 1444 1443 1441 1440 1438 1437 1435 1433 1432 1430 1429 1427 1425 1424 1422 1420 1418 1416 1414
1400 1401 1403 1405 1407 1409 1411 1413 1415 1417 1418 1420 1422 1424 1425 1427 1429 1431 1433 1434 1435 1437 1438 1439 1440 1441 1443 1444 1445 1447 1448 1448 1449 1450 1451 1452 1452 1453 1454 1454 1454 1455 1455 1455 1456 1456 1456 1456 1456 1455 1455 1454 1454 1453 1452 1451 1450 1450 1449 1448 1447 1446 1445 1444 1443 1441 1441 1440 1439 1437 1436 1434 1433 1431 1430 1428 1427 1425 1424 1422 1420 1418 1417 1415 1413
1400 1401 1403 1405 1406 1409 1411 1413 1415 1416 1418 1420 1422 1423 1425 1427 1428 1430 1432 1433 1434 1436 1437 1438 1439 1440 1441 1442 1444 1445 1445 1446 1447 1448 1449 1450 1451 1451 1451 1452 1452 1452 1453 1453 1453 1453 1453 1453 1453 1453 1452 1452 1451 1450 1449 1448 1447 1446 1446 1445 1444 1443 1442 1441 1440 1439 1438 1437 1436 1435 1433 1432 1430 1429 1428 1426 1425 1423 1422 1420 1418 1417 1415 1414 1412
1399 1401 1403 1405 1407 1409 1411 1413 1414 1416 1418 1419 1421 1422 1424 1425 1427 1428 1430 1431 1433 1434 1435 1436 1437 1438 1439 1441 1441 1442 1443 1444 1445 1446 1447 1448 1448 1449 1449 1449 1450 1450 1450 1450 1450 1450 1450 1450 1450 1450 1449 1449 1448 1447 1446 1445 1444 1443 1443 1442 1441 1440 1439 1438 1437 1436 1435 1434 1433 1432 1431 1429 1428 1427 1425 1424 1423 1421 1420 1418 1417 1415 1413 1412 1410
1400 1402 1403 1405 1407 1409 1410 1412 1414 1415 1417 1418 1420 1421 1423 1424 1425 1427 1428 1430 1431 1432 1433 1435 1436 1436 1438 1439 1439 1440 1441 1442 1443 1444 1445 1445 1446 1446 1447 1447 1447 1447 1447 1447 1447 1447 1447 1447 1447 1446 1446 1446 1445 1444 1443 1442 1441 1440 1439 1439 1438 1437 1436 1435 1434 1433 1433 1432 1431 1430 1428 1427 1426 1425 1423 1422 1421 1419 1418 1416 1415 1413 1411 1410 1408
1399 1401 1403 1405 1407 1408 1410 1411 1413 1414 1416 1417 1419 1420 1421 1423 1424 1425 1427 1428 1429 1430 1431 1433 1434 1435 1436 1437 1437 1438 1439 1440 1441 1441 1442 1443 1443 1443 1444 1444 1444 1444 1444 1444 1444 1444 1444 1443 1443 1443 1442 1442 1442 1441 1440 1439 1438 1437 1437 1436 1435 1434 1434 1432 1431 1430 1430 1429 1428 1427 1426 1425 1423 1422 1421 1420 1419 1417 1416 1414 1413 1411 1410 1408 1407
1399 1401 1403 1404 1406 1407 1409 1410 1412 1413 1415 1416 1417 1418 1420 1421 1422 1423 1425 1426 1427 1428 1429 1431 1432 1433 1434 1435 1435 1436 1437 1437 1438 1439 1439 1440 1440 1440 1440 1440 1440 1440 1440 1440 1440 1440 1440 1440 1439 1439 1439 1439 1438 1438 1437 1437 1435 1435 1434 1433 1432 1432 1431 1430 1429 1428 1427 1427 1426 1425 1424 1423 1421 1420 1419 1418 1416 1415 1414 1412 1411 1409 1408 1407 1405
1398 1400 1402 1403 1405 1406 1408 1409 1410 1412 1413 1414 1415 1416 1418 1419 1420 1421 1422 1424 1425 1426 1428 1429 1430 1431 1432 1432 1433 1434 1434 1435 1435 1436 1436 1437 1437 1437 1437 1437 1437 1437 1437 1437 1437 1437 1436 1436 1436 1435 1435 1435 1435 1434 1434 1433 1433 1432 1431 1430 1429 1429 1428 1427 1426 1425 1425 1424 1423 1422 1421 1420 1419 1418 1417 1415 1414 1413 1412 1410 1409 1408 1406 1405 1404
1397 1399 1400 1402 1403 1405 1406 1408 1409 1410 1411 1412 1413 1414 1415 1416 1418 1419 1420 1421 1423 1424 1426 1427 1428 1429 1429 1430 1431 1431 1432 1432 1432 1433 1433 1433 1433 1433 1433 1433 1433 1433 1433 1433 1433 1433 1433 1432 1432 1432 1432 1431 1431 1431 1431 1430 1429 1429 1428 1427 1427 1426 1425 1424 1423 1422 1422 1421 1421 1420 1419 1418 1417 1416 1414 1413 1412 1411 1409 1408 1407 1406 1404 1403 1402
1395 1397 1399 1400 1402 1404 1405 1406 1408 1409 1410 1411 1411 1412 1413 1414 1415 1417 1418 1419 1421 1422 1424 1425 1426 1426 1427 1428 1428 1429 1429 1429 1429 1430 1430 1430 1430 1430 1430 1430 1430 1430 1430 1430 1430 1430 1429 1429 1429 1428 1428 1428 1427 1427 1427 1427 1426 1425 1425 1424 1424 1423 1423 1422 1421 1420 1419 1419 1418 1417 1416 1415 1414 1413 1412 1411 1410 1408 1407 1406 1405 1404 1402 1401 1400
1394 1396 1398 1399 1401 1402 1404 1405 1406 1407 1408 1409 1409 1410 1411 1412 1413 1415 1416 1418 1419 1420 1421 1422 1423 1424 1425 1425 1426 1426 1426 1426 1426 1427 1427 1427 1427 1427 1427 1427 1427 1427 1427 1427 1427 1426 1426 1426 1425 1425 1425 1424 1424 1423 1423 1423 1423 1422 1421 1421 1420 1420 1420 1419 1418 1417 1416 1416 1415 1414 1414 1413 1412 1411 1409 1408 1407 1406 1405 1404 1403 1402 1401 1399 1398
1393 1395 1397 1398 1400 1401 1403 1404 1405 1406 1406 1407 1408 1409 1410 1411 1412 1413 1414 1416 1417 1418 1419 1420 1421 1421 1422 1422 1423 1423 1423 1423 1423 1423 1424 1424 1424 1424 1424 1424 1424 1424 1423 1423 1423 1423 1423 1422 1422 1422 1421 1421 1420 1420 1420 1419 1419 1418 1418 1417 1417 1417 1417 1416 1415 1414 1413 1413 1412 1412 1411 1410 1409 1408 1407 1406 1405 1404 1403 1402 1401 1400 1399 1397 1396
1392 1394 1396 1397 1398 1400 1401 1402 1403 1404 1405 1406 1407 1408 1408 1409 1411 1412 1413 1414 1415 1416 1417 1417 1418 1419 1419 1419 1419 1420 1420 1420 1420 1420 1420 1420 1420 1420 1420 1420 1420 1420 1420 1419 1419 1419 1419 1419 1418 1418 1417 1417 1417 1416 1416 1416 1415 1415 1414 1414 1414 1414 1413 1412 1411 1411 1410 1410 1409 1409 1408 1407 1406 1405 1404 1404 1403 1402 1401 1400 1399 1398 1397 1395 1394
1391 1393 1394 1395 1396 1397 1398 1400 1401 1402 1404 1405 1406 1407 1407 1408 1409 1410 1411 1412 1413 1414 1414 1415 1415 1416 1416 1416 1416 1417 1417 1417 1417 1417 1417 1417 1417 1417 1416 1416 1416 1416 1416 1416 1416 1415 1415 1415 1414 1414 1414 1413 1413 1412 1412 1412 1412 1411 1411 1411 1410 1410 1409 1409 1408 1408 1407 1407 1406 1406 1405 1404 1404 1403 1402 1401 1400 1399 1398 1397 1396 1395 1394 1393 1392
1390 1391 1392 1393 1394 1395 1396 1397 1399 1400 1402 1403 1404 1405 1406 1407 1408 1409 1410 1410 1411 1411 1412 1412 1412 1413 1413 1413 1413 1413 1413 1413 1413 1413 1413 1413 1413 1413 1413 1412 1412 1412 1412 1412 1412 1411 1411 1411 1410 1410 1410 1409 1409 1409 1408 1408 1408 1408 1407 1407 1406 1406 1406 1405 1405 1404 1404 1403 1403 1403 1402 1402 1401 1400 1399 1399 1398 1397 1396 1395 1394 1393 1392 1391 1390
1388 1389 1391 1391 1392 1393 1394 1395 1397 1398 1400 1401 1403 1404 1405 1406 1407 1407 1408 1408 1408 1409 1409 1409 1410 1410 1410 1410 1410 1410 1410 1410 1410 1410 1410 1410 1410 1409 1409 1408 1408 1408 1408 1408 1408 1407 1407 1407 1406 1406 1405 1405 1405 1405 1405 1404 1404 1404 1403 1403 1403 1402 1402 1402 1401 1401 1400 1400 1399 1399 1399 1398 1398 1397 1397 1396 1395 1394 1394 1393 1392 1391 1390 1389 1388